Location: Unspecified
(47.0333°N, 0.0000°E)
Time: 15:18:29
(UTC+00:00)

OTV 5 (USA 277) - Pass Details

Date: 16 June 2019
Orbit: 299 x 335 km, 54.5° (Epoch: 13 July)

Event Time Altitude Azimuth Distance (km) Brightness Sun altitude
Exits shadow 01:23:13 12° 285° (WNW) 1,183 ? -17.2°
Maximum altitude 01:25:24 25° 342° (NNW) 712 ? -17.1°
Drops below altitude 10° 01:27:49 10° 42° (NE) 1,259 ? -16.9°
Enters shadow 02:23:34 -69° 257° (WSW) 12,220 ? -12.6°
